Wind_Speed
57 55 52 50 47 42 39 40 40 45 41 35 34 27 30 31 31 37 40 38 36 36 39 47 49 51 53 51 48 45 45 46 49 50 58 50 51 50
54 51 49 46 43 40 39 39 42 38 43 44 42 38 25 24 29 28 36 42 43 46 45 41 43 47 51 55 52 51 47 47 49 51 54 58 58 52
50 47 42 38 36 34 33 33 34 36 39 41 44 43 43 40 49 42 38 45 45 48 44 44 44 48 46 44 52 54 52 48 48 52 55 57 57 55
44 40 36 33 31 30 28 29 30 30 32 32 30 32 35 40 47 51 47 44 44 43 42 42 42 38 40 39 42 49 53 51 49 52 55 56 58 57
38 33 31 29 27 26 25 25 26 26 27 28 29 28 30 30 32 33 34 37 41 39 35 35 34 33 35 36 34 38 46 52 51 53 53 54 55 59
30 29 29 30 27 26 25 24 25 26 27 28 29 30 30 29 31 32 32 30 32 33 34 34 34 34 34 31 31 30 33 41 50 53 53 53 53 56
28 28 27 28 26 26 27 26 26 28 29 29 29 30 30 30 32 32 33 33 31 31 32 31 29 29 30 32 29 26 25 30 39 47 52 52 54 55
27 26 26 27 26 24 24 26 27 29 29 30 30 31 30 31 30 30 30 31 33 29 32 29 30 31 30 32 32 30 29 28 31 34 47 51 53 55
26 27 27 27 28 26 24 23 24 26 29 31 32 31 32 31 32 32 30 31 32 29 31 31 30 33 32 34 34 31 27 26 28 30 37 46 51 55
26 28 28 27 27 28 26 24 23 25 25 26 29 30 31 30 30 31 30 29 28 25 26 32 29 29 30 30 28 25 23 27 28 28 30 35 43 51
24 24 25 25 26 26 26 26 25 25 25 26 26 27 28 28 28 28 24 24 23 20 16 23 23 27 27 25 24 25 25 29 31 32 34 37 38 43
21 23 24 25 26 27 28 28 27 26 25 23 22 24 26 27 27 26 25 24 24 23 17 17 17 20 23 20 22 25 29 29 34 36 36 36 37 40
21 21 23 24 25 27 29 29 28 28 27 26 25 24 23 24 24 25 26 26 25 23 20 23 19 20 24 25 17 19 25 29 34 38 39 38 37 37
22 23 24 25 27 28 28 29 29 28 27 27 27 26 24 22 20 20 19 20 21 19 18 21 21 20 20 18 17 13 15 20 26 32 39 41 41 41
23 24 26 27 27 28 28 29 29 28 27 27 27 26 25 22 18 15 13 13 12 12 14 16 18 19 21 22 21 16 18 17 22 26 31 35 34 39
22 23 25 27 28 28 27 27 28 28 28 28 27 25 24 21 17 13 9 9 7 9 13 15 18 19 17 21 25 24 24 24 19 21 27 29 30 30
21 23 25 26 26 27 26 26 27 27 26 26 26 24 22 19 14 12 8 6 6 6 8 14 19 19 21 24 26 25 26 22 18 16 22 29 30 27
23 24 25 26 27 27 26 25 26 27 27 27 27 26 24 20 14 11 9 9 8 9 11 12 15 16 18 19 26 26 22 23 19 17 17 19 25 30
24 24 25 26 27 27 26 26 26 27 27 28 28 27 26 22 17 12 11 11 10 10 12 15 17 24 27 28 24 23 26 19 20 20 18 22 21 23
24 24 25 26 26 25 25 26 26 26 26 27 27 27 25 23 18 13 12 12 12 10 10 14 17 22 27 33 34 23 17 20 14 11 16 21 22 25
22 23 24 24 24 23 24 25 26 26 26 26 25 25 25 23 18 15 11 13 13 11 9 13 15 20 26 29 29 23 17 7 5 5 5 6 7 10
22 22 23 23 22 23 24 25 25 25 24 23 23 24 25 24 20 16 13 11 13 13 10 12 12 15 20 24 24 30 16 12 9 10 11 10 6 6
21 21 21 21 21 22 23 24 24 23 23 22 22 23 24 23 22 19 15 11 11 13 12 10 10 13 16 18 22 27 30 24 10 12 12 13 11 12
Wind_Direction
311 309 308 305 303 301 298 297 293 291 292 290 291 292 273 279 268 277 279 283 282 278 275 275 275 267 265 257 249 242 240 238 236 226 220 227 223 215
308 306 305 304 303 299 294 286 280 282 280 284 282 276 270 269 268 278 281 284 287 289 286 286 284 283 270 261 255 249 242 238 235 232 225 225 228 216
306 307 309 308 307 305 300 299 297 293 288 285 279 275 273 277 272 279 281 283 283 281 285 294 291 288 283 273 262 254 247 239 237 233 230 228 230 228
312 315 313 311 309 308 308 306 304 302 299 299 295 287 283 281 277 278 285 281 278 283 288 289 292 287 278 278 267 260 252 244 237 235 231 229 227 225
317 318 317 318 317 317 314 312 307 306 303 302 302 302 298 295 290 287 285 281 281 284 289 290 288 284 280 281 282 265 256 246 240 236 233 229 228 226
322 321 319 318 321 318 315 313 309 306 303 300 298 297 296 297 294 292 289 288 286 288 289 289 283 277 276 279 279 280 266 252 242 236 234 231 226 227
320 319 320 318 323 322 319 316 312 307 305 302 300 299 297 293 288 288 288 287 283 284 285 282 277 274 275 277 278 276 274 262 246 237 234 232 228 224
322 321 322 320 322 321 317 315 312 311 308 306 306 304 303 299 297 293 291 288 283 277 275 271 271 269 268 269 271 271 271 264 257 244 233 232 231 227
323 324 325 325 325 324 322 317 312 307 308 308 307 306 304 305 301 300 295 289 289 287 282 276 266 264 265 267 271 275 270 253 251 249 237 231 230 228
329 329 329 330 327 325 324 322 319 315 311 305 304 304 303 303 302 302 303 298 295 291 284 279 279 273 266 264 265 267 259 245 242 249 231 235 235 231
331 330 334 334 332 329 327 327 324 323 322 317 313 309 306 304 304 305 304 301 297 296 296 284 280 276 269 262 256 256 252 245 243 244 243 237 237 236
333 335 336 337 338 339 338 333 331 329 325 322 316 312 308 302 297 294 293 293 297 300 301 290 285 285 274 265 263 262 253 246 244 245 244 247 247 247
336 338 338 338 339 342 340 336 334 332 330 328 326 321 315 306 295 287 284 287 290 292 297 296 293 288 284 290 282 268 257 252 249 247 248 243 245 247
336 338 339 339 341 339 338 338 336 333 332 330 328 327 323 318 306 294 291 285 290 294 293 289 295 300 299 297 295 281 268 261 256 252 250 248 246 248
334 338 339 339 337 336 336 336 336 335 333 332 332 333 332 328 318 307 298 291 289 290 294 301 305 303 302 305 306 309 299 281 267 256 251 252 249 244
332 335 336 337 336 334 332 333 335 337 336 337 339 338 335 330 321 315 305 285 285 284 302 309 313 313 317 315 314 319 313 305 302 253 252 252 252 247
332 332 334 333 332 332 331 333 336 339 339 338 341 341 340 336 323 309 296 271 270 285 297 312 316 313 314 318 316 314 312 304 291 280 256 247 249 247
332 332 331 332 333 334 334 336 338 340 341 341 342 343 344 340 325 299 285 266 271 293 312 309 331 325 313 317 320 322 312 299 285 273 270 257 242 240
332 330 332 334 337 337 338 339 342 341 343 342 340 344 345 342 328 301 275 261 267 290 305 320 327 338 341 341 348 330 310 300 278 258 269 267 258 249
329 330 333 336 339 339 340 341 342 341 342 341 340 342 342 341 334 311 280 261 259 276 300 317 333 341 339 345 344 349 316 303 292 268 272 264 266 251
330 331 334 337 339 341 342 342 341 341 342 342 339 343 347 346 341 327 299 269 261 266 291 314 333 340 346 346 349 357 352 334 219 243 264 267 251 234
330 331 334 337 339 341 342 342 343 342 342 343 343 347 351 349 346 338 321 288 265 265 274 302 327 342 351 1 11 8 358 337 287 246 257 227 192 214
328 330 333 336 339 340 343 344 346 346 346 346 348 350 352 352 348 344 333 310 273 254 256 280 315 340 351 360 7 10 13 16 340 274 258 222 223 219
Height
3069 3063 3056 3049 3043 3039 3036 3032 3029 3022 3020 3020 3022 3021 3018 3018 3018 3013 3010 3008 3009 3008 3008 3006 3005 3005 3005 3009 3013 3017 3021 3026 3031 3038 3043 3047 3054 3059
3058 3052 3046 3039 3032 3028 3025 3021 3019 3015 3010 3010 3011 3011 3009 3008 3007 3006 3005 3002 2998 2996 2995 2996 2995 2990 2991 2993 2997 3001 3006 3012 3016 3022 3029 3035 3041 3048
3048 3042 3035 3028 3023 3019 3015 3011 3008 3005 3001 3000 2999 2999 2997 2995 2997 2995 2994 2992 2989 2985 2985 2984 2983 2979 2975 2979 2981 2986 2991 2997 3003 3008 3014 3021 3027 3034
3037 3031 3025 3020 3016 3012 3008 3005 3001 2998 2993 2990 2989 2987 2985 2983 2983 2982 2981 2980 2979 2978 2974 2974 2972 2968 2966 2964 2968 2971 2975 2982 2988 2992 2997 3007 3013 3020
3029 3024 3018 3013 3010 3006 3002 2999 2995 2991 2988 2984 2980 2978 2975 2974 2972 2971 2969 2968 2968 2967 2964 2962 2961 2960 2957 2956 2956 2958 2959 2967 2973 2976 2983 2991 2999 3006
3023 3018 3012 3008 3005 3000 2996 2993 2988 2984 2981 2977 2974 2971 2969 2967 2963 2961 2960 2960 2957 2956 2955 2953 2952 2951 2950 2949 2949 2948 2948 2952 2957 2962 2968 2975 2983 2992
3019 3014 3009 3003 3000 2995 2990 2986 2982 2977 2973 2970 2967 2963 2961 2959 2956 2953 2951 2949 2948 2947 2945 2944 2943 2944 2943 2941 2941 2941 2941 2941 2943 2948 2955 2961 2968 2976
3014 3010 3005 2999 2995 2991 2987 2982 2976 2971 2967 2963 2959 2955 2952 2949 2947 2944 2942 2939 2936 2939 2935 2936 2935 2934 2934 2933 2932 2932 2933 2933 2934 2937 2941 2947 2954 2962
3010 3005 3000 2995 2989 2985 2982 2978 2973 2967 2961 2956 2952 2948 2944 2941 2938 2935 2933 2930 2928 2928 2926 2924 2925 2923 2925 2924 2923 2923 2924 2924 2926 2927 2929 2933 2939 2945
3006 3001 2995 2990 2985 2980 2976 2972 2968 2962 2958 2953 2947 2943 2938 2934 2931 2927 2925 2922 2921 2920 2917 2912 2915 2914 2915 2915 2916 2915 2916 2917 2918 2919 2921 2924 2927 2932
3004 2998 2993 2987 2982 2977 2971 2966 2962 2958 2953 2947 2942 2937 2933 2928 2924 2921 2919 2915 2913 2911 2909 2906 2907 2904 2904 2906 2907 2908 2908 2909 2910 2910 2911 2914 2917 2921
3002 2996 2990 2985 2979 2973 2967 2961 2957 2952 2948 2944 2939 2933 2928 2923 2920 2916 2913 2910 2908 2906 2905 2903 2901 2899 2896 2899 2900 2900 2900 2901 2901 2902 2904 2906 2909 2911
2998 2994 2988 2983 2977 2970 2964 2959 2953 2947 2942 2938 2933 2928 2924 2919 2914 2911 2908 2906 2904 2902 2901 2898 2896 2895 2892 2889 2892 2892 2891 2892 2892 2893 2895 2898 2901 2902
2995 2990 2985 2979 2973 2967 2962 2956 2950 2944 2939 2933 2928 2922 2918 2913 2909 2905 2903 2901 2899 2897 2896 2894 2891 2889 2887 2885 2884 2885 2884 2883 2883 2883 2884 2887 2890 2892
2991 2986 2981 2976 2970 2965 2959 2953 2947 2941 2935 2930 2924 2918 2912 2908 2904 2900 2898 2896 2895 2894 2892 2890 2888 2885 2882 2879 2877 2878 2876 2875 2873 2872 2873 2874 2877 2880
2989 2984 2979 2973 2968 2962 2957 2950 2944 2938 2931 2926 2920 2915 2909 2904 2900 2897 2895 2894 2893 2891 2890 2887 2884 2881 2878 2875 2871 2869 2868 2863 2863 2862 2861 2863 2865 2869
2985 2981 2976 2971 2966 2960 2954 2947 2941 2935 2929 2923 2918 2912 2907 2902 2898 2895 2893 2892 2891 2890 2888 2886 2881 2878 2874 2870 2867 2864 2858 2856 2855 2853 2852 2854 2857 2860
2982 2977 2973 2967 2962 2956 2950 2944 2938 2932 2926 2920 2915 2909 2903 2898 2895 2892 2891 2890 2889 2887 2886 2884 2880 2877 2873 2870 2862 2855 2853 2848 2848 2847 2846 2846 2849 2852
2978 2973 2968 2963 2957 2951 2945 2940 2934 2929 2923 2917 2911 2906 2900 2896 2892 2889 2888 2887 2886 2885 2883 2880 2876 2871 2866 2860 2859 2852 2843 2842 2840 2840 2840 2840 2842 2845
2974 2969 2965 2959 2953 2948 2943 2937 2932 2926 2921 2915 2909 2904 2898 2893 2889 2886 2884 2883 2883 2882 2881 2878 2874 2870 2863 2856 2848 2846 2840 2835 2833 2834 2834 2834 2833 2835
2971 2966 2961 2956 2950 2945 2940 2935 2929 2924 2918 2913 2908 2902 2896 2890 2886 2883 2880 2879 2879 2879 2878 2876 2873 2868 2862 2857 2850 2843 2838 2833 2832 2831 2830 2829 2828 2829
2967 2962 2958 2953 2948 2943 2938 2933 2928 2922 2916 2911 2906 2900 2894 2888 2884 2880 2877 2875 2875 2875 2874 2873 2871 2868 2863 2857 2851 2844 2836 2833 2830 2828 2827 2826 2826 2827
2963 2959 2955 2950 2945 2940 2936 2931 2926 2920 2914 2909 2904 2899 2893 2887 2882 2878 2875 2872 2870 2870 2871 2870 2869 2866 2863 2859 2854 2847 2840 2832 2828 2825 2824 2823 2823 2824